Location: Dallas
(32.7833°N, 96.8000°W)
Time: 09:37:51
(UTC-05:00)

N. Korean satellite - Visible Passes

Search period start: 29 September 2022 00:00
Search period end: 09 October 2022 00:00
Orbit: 427 x 468 km, 97.3° (Epoch: 28 September)

Date Brightness Start Highest point End Pass type
(mag) Time Alt. Az. Time Alt. Az. Time Alt. Az.
29 Sep 9.6 05:49:57 10° ENE 05:51:47 14° E 05:53:37 10° SE visible
30 Sep 6.2 06:45:35 10° N 06:48:49 69° WNW 06:52:03 10° SSW visible
01 Oct 8.5 06:10:10 10° NE 06:13:03 29° E 06:15:55 10° SSE visible
03 Oct 6.8 06:30:52 10° NNE 06:34:07 65° ESE 06:37:21 10° S visible
04 Oct 9.4 05:55:54 10° NE 05:58:11 17° E 06:00:26 10° SE visible
05 Oct 6.4 06:51:47 10° N 06:54:59 54° WNW 06:58:11 10° SSW visible
06 Oct 8.1 06:16:01 10° NNE 06:19:04 35° E 06:22:06 10° SSE visible
07 Oct 10.0 05:42:13 10° E 05:42:58 11° E 05:43:43 10° ESE visible
08 Oct 6.4 06:36:29 10° NNE 06:39:46 81° ESE 06:43:03 10° S visible
